Location: Newport
(44.6370°N, 124.0520°W)
Time: 17:10:05
(UTC-07:00)

Vanguard 1 - Visible Passes

Search period start: 20 July 2018 00:00
Search period end: 30 July 2018 00:00
Orbit: 650 x 3833 km, 34.2° (Epoch: 20 July)

Date Brightness Start Highest point End Pass type
(mag) Time Alt. Az. Time Alt. Az. Time Alt. Az.
20 Jul 11.4 03:23:06 14° SSE 03:23:06 14° SSE 03:24:07 10° SE visible
20 Jul 11.7 22:58:25 10° SSW 23:00:01 14° S 23:00:01 14° S visible
21 Jul 11.5 03:43:35 12° SSE 03:43:35 12° SSE 03:44:23 10° SSE visible
21 Jul 11.6 23:18:28 10° SW 23:20:33 16° SSW 23:20:33 16° SSW visible
22 Jul 11.6 04:04:09 10° S 04:04:09 10° S 04:04:11 10° S visible
22 Jul 11.7 21:19:57 10° S 21:23:50 14° SSE 21:26:59 10° SE visible
22 Jul 11.6 23:38:53 10° SW 23:40:58 17° SSW 23:40:58 17° SSW visible
23 Jul 11.5 21:39:12 10° SSW 21:44:44 18° SSE 21:48:31 11° SE visible
23 Jul 11.6 23:59:33 10° SW 00:01:16 16° SW 00:01:16 16° SW visible
24 Jul 11.2 21:59:08 10° SW 22:05:37 23° SSE 22:08:43 16° SE visible
25 Jul 11.8 00:20:21 10° WSW 00:21:28 14° SW 00:21:28 14° SW visible
25 Jul 11.0 22:19:30 10° SW 22:26:28 27° S 22:28:51 21° SE visible
26 Jul 12.0 00:41:17 10° WSW 00:41:35 11° WSW 00:41:35 11° WSW visible
26 Jul 10.7 22:40:08 10° SW 22:47:18 30° S 22:48:53 27° SSE visible
27 Jul 10.6 23:00:58 10° WSW 23:08:05 32° S 23:08:50 31° SSE visible
28 Jul 10.7 23:21:55 10° WSW 23:28:45 33° S 23:28:45 33° S visible
29 Jul 11.4 21:19:41 10° SW 21:29:33 34° S 21:35:32 10° ESE visible
29 Jul 10.9 23:42:59 10° WSW 23:48:36 30° SSW 23:48:36 30° SSW visible
